Wind_Speed
22 21 27 29 29 27 25 23 19 15 14 14 13 13 12 10 9 9 9 9 9 9 9 10 10 11 11 9 9 7 11 7
26 23 25 29 30 29 27 26 22 18 17 16 16 15 15 13 11 9 9 9 10 10 11 11 12 12 11 11 11 9 11 11
28 26 25 28 30 31 30 29 27 22 20 18 17 16 15 15 13 11 10 10 10 10 11 12 12 13 12 12 11 11 12 15
29 32 30 28 30 33 33 32 30 25 22 20 18 17 16 16 16 14 12 11 11 10 11 13 12 13 13 13 13 13 17 16
28 34 37 33 30 32 34 34 32 28 24 22 21 19 19 18 18 16 14 13 12 11 12 12 14 14 14 14 13 15 19 17
28 27 33 38 34 34 34 36 34 32 27 25 23 21 20 20 18 18 17 15 14 14 12 14 14 15 14 13 14 15 18 16
27 30 28 29 37 39 40 35 36 35 32 28 26 24 23 21 21 19 19 18 17 16 16 16 16 15 16 14 13 14 19 18
31 34 36 32 28 34 36 38 38 38 37 33 29 28 27 26 24 22 21 20 20 19 17 17 18 18 16 14 13 14 14 17
33 33 31 34 34 24 41 39 32 36 35 36 33 30 28 29 28 26 24 24 24 21 20 20 20 19 18 15 14 15 15 16
38 33 33 34 34 39 39 25 32 36 35 38 40 34 31 31 32 31 29 29 28 26 23 22 21 21 19 18 16 15 15 17
41 39 38 35 32 32 30 32 33 37 37 39 40 38 35 35 35 34 32 33 32 29 27 26 24 23 22 20 19 17 15 16
38 37 38 38 36 34 32 33 33 35 34 35 36 37 38 39 39 37 35 37 36 33 31 29 27 26 26 24 24 20 19 16
37 34 32 34 35 32 32 35 37 37 38 38 37 38 37 41 44 43 40 41 39 38 34 32 30 29 30 30 29 25 22 20
34 37 32 29 30 32 33 33 35 38 41 42 42 42 44 43 44 46 44 48 44 41 39 35 33 33 33 32 33 31 27 24
34 32 27 27 27 30 33 34 35 37 39 42 44 45 47 46 47 49 48 51 50 44 40 38 37 36 37 35 36 36 31 28
28 26 25 27 28 30 32 34 36 37 39 41 43 45 48 50 52 53 49 51 49 52 47 43 42 40 39 38 35 36 37 34
25 27 28 29 30 32 33 35 37 38 39 42 43 44 47 49 51 53 55 55 57 52 46 42 46 44 43 42 40 38 38 39
29 27 28 31 33 35 37 39 39 41 41 43 43 44 47 50 53 55 55 54 51 52 54 52 49 48 49 46 44 42 38 39
27 30 31 32 33 35 37 39 40 42 43 44 46 47 48 50 52 56 58 57 55 49 50 48 49 47 50 49 47 47 41 36
32 34 37 38 40 44 45 44 43 42 44 47 48 49 49 51 54 56 57 61 60 54 47 46 45 42 47 50 50 48 43 38
Wind_Direction
238 238 227 223 222 221 221 217 223 230 229 226 230 233 234 235 239 237 238 235 240 242 241 241 245 247 250 252 259 266 264 255
234 237 232 227 224 223 224 222 226 229 233 231 231 235 237 238 243 247 246 245 247 249 247 250 254 252 254 256 259 265 267 259
239 236 235 231 227 226 226 227 228 229 232 235 234 236 240 241 243 246 246 244 247 253 260 255 259 262 262 261 259 258 262 265
246 236 240 240 233 229 228 229 229 232 232 235 236 238 239 240 242 245 249 251 257 261 263 266 264 264 267 269 262 251 254 263
249 239 238 240 242 241 235 233 232 232 233 235 237 238 239 240 243 247 254 256 258 262 272 272 269 262 263 265 264 259 259 263
254 249 242 240 241 239 241 239 238 234 232 236 238 240 243 246 247 247 249 254 259 259 265 266 265 265 266 263 265 267 264 269
249 253 245 244 248 240 241 242 241 240 234 232 236 240 246 249 249 244 249 254 257 258 260 265 265 264 268 276 268 266 262 268
250 246 239 239 249 245 245 246 240 241 239 236 235 239 242 248 253 252 252 255 257 261 260 258 261 261 263 273 277 278 276 279
247 247 247 242 242 238 236 225 238 245 239 240 239 238 241 246 250 253 252 253 257 256 261 261 261 263 266 267 271 281 286 277
236 241 252 256 250 251 260 261 232 241 236 235 242 240 240 243 249 252 256 255 257 262 262 262 262 262 262 264 268 276 291 287
239 243 248 252 259 262 247 248 247 246 244 239 241 240 241 244 246 249 253 258 258 259 261 264 262 259 257 259 263 271 280 291
248 254 257 259 257 253 254 248 248 246 244 244 242 244 243 242 246 245 248 252 256 260 258 258 264 259 256 253 256 261 268 280
256 264 267 260 257 255 254 253 253 252 251 251 248 246 245 244 243 245 246 249 252 257 254 252 256 255 256 254 254 256 262 268
259 273 266 257 257 261 261 256 253 254 254 254 254 252 249 251 250 247 250 253 247 246 252 250 252 256 256 258 259 258 258 264
268 268 266 266 263 262 263 262 258 253 252 254 254 253 254 252 250 253 252 251 250 247 245 253 250 252 257 256 258 262 264 264
263 267 274 276 276 272 268 265 261 260 256 253 253 255 256 255 254 251 253 258 258 256 240 247 257 250 252 257 261 261 262 261
269 279 280 278 277 275 273 270 269 263 259 257 255 253 254 255 258 259 255 256 258 259 254 250 250 253 251 254 259 263 263 261
283 283 282 280 278 277 277 275 272 269 267 264 258 255 253 253 253 257 259 257 256 257 258 257 253 251 250 248 253 260 262 265
290 291 287 283 281 282 281 279 276 274 271 267 264 261 255 254 253 252 255 257 257 255 256 252 252 252 250 251 251 254 259 262
294 291 288 284 285 288 285 283 280 279 277 274 270 267 264 259 254 252 251 253 254 250 252 254 253 253 248 248 247 249 251 254
Height
3141 3142 3143 3144 3145 3146 3148 3149 3150 3150 3151 3152 3152 3153 3153 3154 3154 3154 3155 3156 3156 3156 3156 3157 3157 3158 3160 3161 3162 3164 3163 3165
3136 3138 3139 3139 3141 3143 3144 3145 3146 3147 3148 3149 3149 3150 3151 3151 3152 3152 3153 3153 3154 3153 3154 3154 3155 3156 3158 3159 3161 3162 3161 3160
3132 3134 3134 3135 3136 3138 3139 3141 3142 3143 3144 3145 3146 3147 3148 3149 3150 3150 3150 3151 3151 3151 3152 3152 3153 3154 3155 3157 3158 3159 3158 3157
3126 3128 3129 3131 3131 3132 3133 3135 3138 3139 3140 3141 3143 3144 3145 3146 3147 3147 3148 3148 3149 3149 3149 3150 3150 3151 3153 3154 3156 3155 3153 3155
3118 3120 3122 3125 3126 3129 3130 3132 3134 3136 3138 3138 3139 3139 3141 3142 3143 3144 3145 3146 3146 3147 3147 3147 3148 3148 3149 3150 3152 3152 3150 3152
3110 3113 3115 3119 3119 3122 3124 3126 3129 3131 3133 3135 3136 3136 3137 3138 3140 3141 3142 3142 3143 3144 3144 3144 3145 3145 3146 3148 3148 3148 3147 3149
3104 3106 3109 3111 3112 3112 3116 3120 3122 3126 3127 3130 3130 3131 3133 3134 3136 3137 3137 3139 3139 3140 3140 3141 3141 3142 3143 3144 3144 3144 3143 3145
3095 3098 3100 3102 3103 3105 3110 3111 3115 3116 3120 3124 3126 3126 3127 3127 3130 3132 3133 3134 3135 3135 3136 3136 3137 3138 3139 3140 3140 3140 3140 3139
3091 3090 3092 3097 3101 3099 3105 3100 3103 3109 3111 3115 3120 3120 3121 3122 3123 3125 3128 3129 3130 3131 3131 3132 3133 3133 3135 3136 3136 3136 3137 3135
3086 3087 3088 3091 3094 3095 3096 3097 3097 3099 3095 3107 3111 3113 3114 3114 3117 3119 3120 3122 3124 3125 3126 3127 3127 3128 3130 3131 3132 3132 3133 3132
3083 3086 3088 3088 3087 3087 3090 3091 3092 3094 3095 3098 3099 3103 3105 3107 3108 3111 3113 3112 3116 3119 3121 3121 3123 3123 3124 3125 3126 3128 3129 3129
3080 3081 3080 3082 3082 3081 3082 3085 3087 3087 3088 3089 3090 3091 3096 3099 3099 3102 3104 3105 3105 3110 3114 3115 3117 3119 3119 3119 3120 3122 3124 3124
3072 3073 3073 3075 3074 3075 3075 3075 3077 3080 3082 3082 3082 3084 3084 3086 3090 3093 3095 3097 3098 3098 3103 3108 3110 3111 3112 3113 3113 3115 3118 3118
3065 3066 3065 3064 3065 3065 3066 3067 3069 3070 3071 3072 3073 3075 3075 3077 3079 3085 3086 3089 3089 3090 3089 3098 3101 3103 3104 3106 3106 3109 3112 3113
3059 3058 3057 3055 3056 3057 3057 3057 3058 3059 3060 3061 3062 3065 3067 3069 3071 3074 3075 3077 3073 3078 3082 3086 3090 3093 3097 3099 3098 3100 3105 3107
3053 3052 3051 3050 3050 3049 3048 3048 3048 3049 3050 3051 3053 3054 3055 3057 3058 3061 3065 3067 3068 3070 3067 3076 3080 3084 3087 3091 3092 3094 3096 3099
3048 3047 3046 3044 3043 3041 3041 3040 3039 3040 3040 3040 3041 3043 3044 3046 3047 3049 3052 3055 3056 3059 3063 3065 3071 3074 3077 3082 3085 3085 3088 3091
3043 3042 3040 3038 3035 3034 3032 3030 3030 3029 3030 3029 3031 3032 3033 3034 3036 3036 3038 3042 3045 3049 3052 3057 3061 3065 3067 3070 3074 3078 3082 3081
3037 3036 3034 3030 3028 3026 3023 3021 3019 3017 3017 3018 3018 3019 3021 3023 3023 3024 3025 3028 3033 3037 3038 3043 3050 3054 3056 3059 3065 3068 3074 3075
3030 3028 3026 3022 3019 3016 3013 3010 3007 3006 3004 3003 3003 3004 3006 3009 3010 3011 3013 3014 3018 3024 3026 3029 3035 3040 3044 3047 3053 3059 3064 3067